Kodiak, AK

5:03 PM AKDT on October 22, 2017 (GMT -0800)
Kodiak

Weather History for PADQ - October, 2011

Change the Weather History Date:

Thursday, October 6, 2011

  Actual Average Record
Temperature  
Mean Temperature 46 °F 43 °F  
Max Temperature 53 °F 49 °F 59 °F (1979)
Min Temperature 39 °F 37 °F 26 °F (1967)
Degree Days  
Heating Degree Days 19 22  
Month to date heating degree days 125 127  
Since 1 July heating degree days 1217 1228  
Cooling Degree Days 0 0  
Month to date cooling degree days 0 0  
Year to date cooling degree days 0 1  
Moisture  
Dew Point 39 °F    
Average Humidity 0    
Maximum Humidity 0    
Minimum Humidity 0    
Precipitation  
Precipitation 0.08 in 0.28 in 2.86 in (1993)
Month to date precipitation 1.34 1.69  
Year to date precipitation 56.21 55.83  
Snow  
Snow 0.00 in 0.00 in - ()
Month to date snowfall 0.0 0.0  
Since 1 July snowfall 0.0 0.0  
Since 1 September snowfall 0.0 0.0  
Snow Depth 0.00 in    
Sea Level Pressure  
Sea Level Pressure 29.34 in    
Wind  
Wind Speed 3 mph (WNW)    
Max Wind Speed 15 mph    
Max Gust Speed 21 mph    
Visibility 10 miles    
Events Rain    
T = Trace of Precipitation, MM = Missing Value Source: NWS Daily Summary

Daily Weather History Graph

Daily Weather History Graph

Search for Another Location

Airport or City:

Trip Planner

Search our weather history database for the weather conditions in past years. The results will help you decide how hot, cold, wet, or windy it might be!

Date:

Astronomy

Oct. 06, 2011 Rise Set
Actual Time 8:24 AM AKDT 7:30 PM AKDT
Civil Twilight 7:45 AM AKDT 8:09 PM AKDT
Nautical Twilight 7:00 AM AKDT 8:54 PM AKDT
Astronomical Twilight 6:13 AM AKDT 9:40 PM AKDT
Moon 5:39 PM AKDT (10/6) 2:23 AM AKDT (10/6)
Length of Visible Light 12h 23m
Length of Day
11h 05m
Waxing Gibbous, 76% of the Moon is Illuminated
Oct 6
Waxing Gibbous
Oct 11
Full
Oct 19
Last Quarter
Oct 26
New
Nov 2
First Quarter

Hourly Weather History & Observations

Time (AKDT) Temp. Windchill Dew Point Humidity Pressure Visibility Wind Dir Wind Speed Gust Speed Precip Events Conditions
12:53 AM 45.0 °F - 39.0 °F 80% 29.29 in 10.0 mi Calm Calm - N/A   Mostly Cloudy
1:53 AM 46.9 °F - 39.0 °F 74% 29.28 in 10.0 mi SSW 9.2 mph 19.6 mph 0.00 in Rain Light Rain
2:53 AM 45.0 °F 42.6 °F 41.0 °F 86% 29.26 in 6.0 mi NE 4.6 mph - 0.04 in Rain Light Rain
3:17 AM 44.6 °F 41.4 °F 42.8 °F 93% 29.26 in 8.0 mi East 5.8 mph - 0.01 in Rain Light Rain
3:40 AM 44.6 °F - 42.8 °F 93% 29.25 in 10.0 mi Calm Calm - 0.03 in Rain Light Rain
3:53 AM 44.1 °F - 42.1 °F 93% 29.25 in 10.0 mi Calm Calm - 0.03 in   Overcast
4:53 AM 44.1 °F - 42.1 °F 93% 29.23 in 10.0 mi Calm Calm - N/A   Overcast
5:53 AM 44.1 °F - 42.1 °F 93% 29.22 in 10.0 mi Calm Calm - 0.00 in   Overcast
6:53 AM 43.0 °F - 41.0 °F 93% 29.21 in 10.0 mi Calm Calm - 0.01 in   Overcast
7:53 AM 42.1 °F - 39.9 °F 92% 29.22 in 10.0 mi Calm Calm - N/A   Mostly Cloudy
8:53 AM 39.9 °F - 37.9 °F 93% 29.23 in 10.0 mi Calm Calm - N/A   Mostly Cloudy
9:53 AM 43.0 °F 38.8 °F 39.9 °F 89% 29.25 in 10.0 mi West 6.9 mph - N/A   Mostly Cloudy
10:53 AM 45.0 °F - 41.0 °F 86% 29.27 in 10.0 mi Calm Calm - N/A   Mostly Cloudy
11:53 AM 48.9 °F - 39.9 °F 71% 29.29 in 10.0 mi NW 4.6 mph - N/A   Mostly Cloudy
12:53 PM 50.0 °F - 39.0 °F 66% 29.32 in 10.0 mi WNW 6.9 mph - N/A   Mostly Cloudy
1:53 PM 50.0 °F - 39.0 °F 66% 29.34 in 10.0 mi WNW 8.1 mph - N/A   Mostly Cloudy
2:53 PM 50.0 °F - 39.9 °F 68% 29.37 in 10.0 mi West 5.8 mph - N/A   Mostly Cloudy
3:53 PM 51.1 °F - 39.9 °F 66% 29.39 in 10.0 mi WNW 13.8 mph - N/A   Scattered Clouds
4:53 PM 53.1 °F - 37.0 °F 55% 29.40 in 10.0 mi West 3.5 mph - N/A   Mostly Cloudy
5:53 PM 52.0 °F - 36.0 °F 54% 29.42 in 10.0 mi NW 3.5 mph - N/A   Mostly Cloudy
6:53 PM 50.0 °F - 36.0 °F 59% 29.45 in 10.0 mi Calm Calm - N/A   Mostly Cloudy
7:53 PM 45.0 °F - 36.0 °F 71% 29.47 in 10.0 mi Calm Calm - N/A   Mostly Cloudy
8:53 PM 45.0 °F - 36.0 °F 71% 29.50 in 10.0 mi Calm Calm - N/A   Mostly Cloudy
9:53 PM 46.0 °F 42.5 °F 37.0 °F 71% 29.52 in 10.0 mi WNW 6.9 mph - N/A   Mostly Cloudy
10:53 PM 45.0 °F 42.6 °F 36.0 °F 71% 29.55 in 10.0 mi SW 4.6 mph - N/A   Mostly Cloudy
11:53 PM 45.0 °F 43.5 °F 37.0 °F 74% 29.57 in 10.0 mi WSW 3.5 mph - N/A   Mostly Cloudy